カタログに戻る

LUCH DEB

運用中GEO
NORAD 44582·DEBRIS·🇷🇺 Russia

打ち上げ Dec 16, 1994 から Baikonur Cosmodrome

Loading…

TLE

最新Source: Space-Track

元期: Sep 14, 2026, 00:10 UTC

1 44582U 94082G   26257.00710311  .00000087  00000-0  00000-0 0  9996
2 44582  14.5825 353.3085 0017279 118.0009 255.8835  1.00688014 47142

AllMySatでLUCH DEBをリアルタイム追跡

Download on the App Store